カタログに戻る

CZ-6A DEB

運用中PO
NORAD 61274·DEBRIS·🇨🇳 China

打ち上げ Aug 6, 2024 から Taiyuan Satellite Launch Center

Loading…

次のパス (今後24時間)

TLE

最新Source: Space-Track

元期: Sep 14, 2026, 09:54 UTC

1 61274U 24140SK  26257.41304635  .00002245  00000-0  11758-2 0  9996
2 61274  88.8466 252.8987 0101359 310.0039  49.2281 14.11394575105426

AllMySatでCZ-6A DEBをリアルタイム追跡

Download on the App Store